Wind_Speed
53 52 56 57 57 60 61 60 63 65 63 65 61 65 66 67 65 66 64 65 69 73 78 84 87 83 85 85 83 79 77 70 70 70 68 67 67 66 66 66 67 67 68
55 55 60 63 63 64 63 63 65 66 62 62 66 68 68 65 72 69 69 70 72 80 87 85 82 84 88 84 85 80 74 73 72 73 71 71 70 68 67 70 73 75 73
57 58 62 65 69 71 70 66 65 67 66 67 67 67 67 68 67 72 75 81 85 84 82 82 86 84 82 82 76 76 76 77 77 78 79 78 78 77 78 78 77 77 76
60 60 61 60 65 60 62 61 65 63 60 62 65 65 66 70 71 76 81 80 77 79 78 83 81 82 77 78 77 77 78 80 81 82 82 82 83 83 83 83 83 81 78
65 62 62 58 56 59 63 68 64 64 66 67 66 67 72 75 78 78 81 81 81 81 80 81 79 77 77 78 79 79 80 84 84 85 86 85 87 86 86 86 85 84 83
66 65 58 61 63 66 62 62 66 67 65 69 72 71 73 75 80 81 79 79 82 86 84 76 75 74 78 81 82 83 86 89 88 86 86 88 87 87 87 87 87 87 87
72 58 68 61 64 64 64 67 67 62 65 70 71 72 77 77 76 76 80 83 83 76 73 76 78 81 82 83 83 85 87 91 91 90 91 90 89 89 87 87 89 88 86
56 53 49 54 60 64 72 65 66 68 71 75 79 75 72 73 75 79 79 75 75 76 76 78 81 88 90 90 88 88 89 90 91 93 93 93 92 91 89 90 91 91 92
62 60 63 59 57 64 62 65 65 67 72 74 73 76 77 79 78 79 76 73 73 76 81 84 89 91 95 94 95 94 94 93 95 96 96 96 95 94 95 96 95 95 99
51 52 53 55 57 60 62 68 65 68 72 73 72 77 78 78 78 76 79 76 75 77 81 86 92 99 101 99 99 96 97 99 100 99 98 98 99 99 101 100 100 103 104
49 53 57 58 58 59 59 61 65 71 73 75 72 74 77 79 78 79 83 86 87 86 88 92 95 99 102 102 101 100 102 106 104 102 102 104 104 103 102 103 103 100 101
51 53 54 57 59 61 63 67 65 70 73 74 76 78 78 81 84 87 84 86 91 98 101 106 107 105 103 104 105 105 109 109 107 107 108 109 109 106 105 100 99 98 96
52 54 56 60 62 64 66 68 68 69 72 71 78 81 82 87 87 87 91 93 98 102 105 110 111 111 110 109 108 108 109 110 111 113 114 115 113 109 101 100 97 93 92
48 51 58 62 64 66 66 67 66 67 68 76 80 84 88 87 88 92 97 101 103 105 109 110 113 114 116 115 116 115 111 110 113 115 114 116 114 107 101 97 93 88 82
54 58 65 65 60 62 64 66 68 70 74 79 83 83 85 91 95 99 104 105 107 108 108 111 114 117 119 121 119 116 114 113 114 116 117 112 106 100 93 89 83 77 73
54 57 61 63 64 64 67 69 71 75 78 77 80 84 90 95 100 103 105 108 110 110 110 113 114 118 122 122 123 120 115 114 118 119 114 110 101 97 93 84 76 72 66
62 64 61 61 65 68 71 75 77 79 81 81 85 89 95 98 100 104 106 108 110 113 113 111 115 120 122 124 123 121 119 120 119 118 113 106 95 92 87 80 74 68 61
57 56 58 62 66 71 75 79 81 81 82 85 89 92 97 101 101 103 106 110 113 115 116 115 119 122 124 122 122 122 122 122 116 111 107 97 89 84 81 73 71 65 59
57 61 63 63 64 66 71 75 79 82 85 90 92 95 96 99 102 106 108 110 113 116 120 123 123 123 120 121 121 124 123 115 109 104 98 90 85 80 76 70 67 63 58
57 56 59 62 63 66 68 73 77 80 83 85 88 92 96 101 105 107 110 114 117 121 126 128 124 120 119 121 125 125 119 112 105 99 88 86 79 75 73 69 66 62 56
57 58 58 58 58 60 63 67 71 76 82 86 91 96 100 103 106 110 115 118 120 121 121 121 122 124 125 125 127 122 117 109 99 98 82 82 75 72 68 65 62 59 55
50 51 53 57 60 63 68 72 77 82 86 91 94 98 103 108 113 116 114 113 116 116 115 120 121 122 123 128 124 118 113 105 94 91 79 77 72 68 64 62 59 57 53
53 56 59 62 65 69 74 79 82 86 91 96 101 106 111 111 109 110 112 111 111 116 121 123 123 124 124 122 118 112 106 98 91 84 74 72 67 64 61 59 56 54 51
58 61 62 64 67 72 78 83 88 92 98 100 102 102 102 104 108 108 106 108 112 117 120 123 125 123 120 117 114 105 98 92 87 80 71 65 64 60 58 55 52 50 49
59 61 65 67 71 76 81 85 87 87 88 91 93 95 97 99 104 108 109 112 114 116 120 123 122 121 117 111 104 99 91 85 79 74 68 63 60 56 55 51 48 48 47
63 68 71 75 76 77 82 87 86 89 93 93 95 98 101 103 105 109 113 116 116 118 119 119 119 116 110 102 97 92 85 78 72 69 64 61 55 50 52 47 45 45 44
Wind_Direction
252 245 248 254 257 259 262 267 271 275 281 280 281 284 281 281 285 292 293 291 282 284 289 293 295 295 297 298 299 297 297 295 294 293 293 293 293 293 289 288 288 289 288
249 246 255 256 260 264 265 269 274 278 281 279 281 281 284 283 291 289 289 289 286 286 292 292 295 296 298 297 298 297 295 295 294 295 295 297 297 294 291 289 288 288 288
252 254 256 263 264 262 268 272 275 275 279 283 284 284 288 290 284 290 286 291 291 291 293 294 296 297 297 297 296 297 299 300 300 303 303 301 299 296 294 291 290 289 289
253 257 263 267 266 270 271 272 274 278 284 284 284 287 285 285 283 286 290 288 291 296 299 298 297 297 298 300 301 302 302 303 302 303 302 300 299 297 296 295 293 291 288
256 261 261 265 268 272 272 274 282 283 284 284 286 285 282 283 285 287 291 292 293 293 292 293 294 296 298 300 302 303 303 301 300 300 300 300 299 297 296 295 293 291 288
256 262 265 268 268 270 273 276 280 283 280 284 283 282 280 282 286 289 290 292 295 295 295 293 296 299 302 304 304 304 303 301 300 300 299 298 297 296 295 293 292 290 289
259 270 268 268 270 270 274 273 281 279 277 277 277 280 283 286 288 289 291 292 293 293 296 301 304 306 305 303 302 302 302 301 302 301 301 299 298 296 293 291 290 287 285
261 262 265 265 269 270 275 273 278 278 278 278 280 283 284 286 288 291 293 294 296 299 300 302 304 306 306 304 302 301 299 299 301 302 300 298 297 295 292 293 290 286 284
266 264 267 269 266 272 273 270 273 276 279 280 284 284 285 287 288 288 290 292 293 298 301 302 304 305 304 302 301 301 301 303 303 302 300 299 298 297 295 294 291 288 286
254 259 263 265 268 266 269 274 278 280 281 283 286 288 288 288 288 290 296 295 295 296 298 301 303 304 303 302 301 302 304 304 304 301 300 300 300 299 297 295 291 289 285
264 265 268 272 273 274 274 278 282 281 284 284 284 285 287 289 292 295 297 299 302 301 301 302 301 301 300 300 303 306 306 305 306 304 303 302 301 299 297 295 292 288 284
267 270 270 270 273 277 279 282 280 282 283 284 286 286 287 289 291 292 294 301 303 303 303 304 303 301 300 303 306 308 308 308 306 304 304 304 304 302 300 297 293 289 286
270 271 275 278 279 279 279 280 279 280 283 284 285 289 290 294 297 299 302 301 301 301 302 302 302 303 305 307 307 307 307 306 306 307 308 307 305 304 302 298 293 290 288
275 275 277 275 276 277 278 278 279 279 282 286 289 289 293 296 298 298 298 298 300 302 302 303 304 306 306 308 309 308 307 307 308 308 308 307 306 305 302 297 294 292 289
276 279 277 278 278 280 282 282 281 282 283 286 289 292 294 295 297 297 298 300 300 300 302 303 305 306 308 308 308 308 309 310 309 308 308 307 307 304 299 296 295 292 289
274 273 278 279 282 283 284 284 283 282 284 286 288 290 292 294 294 297 299 299 300 302 303 304 305 306 307 308 308 309 310 311 311 310 309 310 308 305 302 299 297 293 291
274 278 277 277 275 276 278 279 280 282 285 286 288 289 289 293 295 297 297 299 300 301 302 304 304 304 307 308 309 310 311 311 311 310 310 309 307 304 301 300 298 295 292
274 276 277 277 277 276 277 278 280 281 284 286 288 291 293 294 295 297 299 300 300 301 302 302 303 305 307 308 309 309 309 310 310 310 309 307 306 303 301 300 297 295 291
278 280 280 281 281 281 282 281 282 282 284 286 288 291 293 295 296 297 297 298 299 300 301 302 304 306 307 307 307 308 309 310 310 310 309 308 306 304 301 299 296 294 290
281 281 282 283 284 285 285 285 286 288 289 290 292 293 294 295 295 296 298 299 300 302 303 304 306 306 307 307 308 310 311 312 313 312 310 308 306 303 299 298 295 293 289
284 286 288 290 291 292 293 293 293 293 293 293 293 293 295 296 297 298 299 302 303 305 306 307 308 308 309 308 310 311 312 313 313 311 311 307 304 301 299 296 293 290 287
290 290 291 292 293 293 293 293 292 292 293 294 295 296 297 298 298 301 305 305 306 307 307 306 306 307 307 308 309 310 312 311 311 309 310 307 303 300 297 294 291 289 286
291 292 293 293 293 294 295 295 295 295 296 298 299 298 299 300 303 304 306 307 308 308 307 307 307 308 308 308 308 310 311 311 311 308 308 304 302 299 296 292 291 288 285
291 291 292 293 295 299 302 301 300 300 299 300 300 302 303 303 303 305 306 307 307 307 306 307 307 307 308 309 310 311 311 311 308 306 306 303 301 299 294 292 289 285 283
290 292 295 299 299 301 305 305 306 307 309 309 309 308 307 307 307 307 307 306 307 307 307 307 307 307 308 310 310 310 310 308 306 305 304 303 301 297 293 291 287 284 282
294 294 295 297 300 305 307 307 310 315 316 312 309 308 307 308 308 307 307 308 307 307 306 306 306 307 308 309 309 309 308 306 306 305 305 301 300 296 291 290 287 283 280
Height
10703 10704 10703 10704 10703 10702 10704 10704 10704 10704 10705 10702 10700 10697 10693 10690 10690 10682 10682 10678 10672 10667 10662 10659 10653 10647 10641 10636 10631 10625 10620 10615 10612 10610 10607 10603 10598 10592 10588 10585 10583 10583 10581
10695 10696 10696 10696 10696 10696 10695 10696 10697 10696 10695 10692 10689 10684 10681 10679 10677 10674 10669 10665 10660 10655 10651 10644 10637 10631 10625 10618 10613 10608 10603 10597 10593 10590 10587 10583 10579 10576 10574 10570 10566 10563 10562
10687 10689 10689 10688 10689 10688 10687 10688 10688 10687 10684 10681 10677 10672 10669 10666 10662 10661 10655 10644 10643 10640 10632 10626 10622 10615 10608 10603 10596 10590 10583 10576 10571 10567 10563 10560 10556 10553 10550 10546 10545 10543 10540
10681 10682 10681 10681 10680 10680 10679 10677 10677 10675 10672 10668 10664 10660 10657 10652 10649 10645 10641 10639 10630 10622 10614 10605 10602 10597 10590 10584 10578 10572 10565 10558 10552 10548 10543 10538 10533 10528 10524 10520 10518 10516 10516
10671 10672 10673 10673 10672 10670 10670 10667 10665 10661 10658 10655 10652 10648 10645 10639 10634 10629 10622 10617 10612 10613 10610 10599 10590 10583 10575 10568 10562 10555 10549 10539 10535 10532 10525 10518 10512 10506 10501 10496 10491 10489 10488
10663 10662 10663 10662 10661 10660 10658 10654 10652 10649 10645 10643 10641 10633 10629 10626 10622 10615 10607 10601 10594 10582 10582 10583 10574 10569 10561 10552 10545 10536 10527 10516 10515 10513 10507 10499 10493 10486 10480 10473 10468 10463 10459
10655 10652 10653 10651 10647 10649 10646 10643 10640 10637 10632 10627 10624 10621 10616 10609 10603 10600 10593 10585 10578 10574 10565 10555 10549 10545 10544 10537 10533 10524 10513 10496 10490 10487 10480 10474 10468 10464 10459 10453 10447 10441 10435
10645 10642 10640 10639 10637 10636 10635 10633 10627 10623 10619 10613 10609 10606 10602 10599 10592 10583 10576 10568 10560 10551 10547 10543 10540 10528 10520 10516 10512 10508 10496 10484 10473 10465 10457 10449 10444 10439 10432 10426 10420 10415 10410
10632 10633 10631 10631 10626 10623 10623 10618 10613 10607 10604 10601 10590 10588 10587 10579 10574 10569 10566 10560 10553 10542 10532 10525 10516 10513 10504 10496 10487 10483 10468 10460 10453 10443 10433 10424 10417 10410 10402 10394 10388 10381 10376
10624 10622 10620 10618 10615 10612 10610 10601 10600 10594 10589 10586 10580 10567 10565 10561 10556 10551 10542 10542 10538 10531 10521 10512 10503 10489 10478 10472 10466 10461 10447 10435 10428 10420 10408 10397 10389 10380 10370 10361 10353 10345 10337
10614 10612 10609 10606 10601 10599 10598 10592 10585 10578 10576 10568 10567 10558 10549 10544 10538 10534 10529 10512 10507 10505 10500 10495 10489 10479 10464 10451 10442 10433 10421 10407 10398 10388 10378 10366 10358 10348 10338 10327 10315 10304 10294
10604 10602 10598 10593 10590 10586 10583 10578 10572 10564 10561 10554 10545 10543 10539 10531 10524 10517 10512 10502 10494 10479 10469 10457 10452 10451 10443 10432 10417 10407 10392 10377 10367 10358 10346 10333 10321 10310 10299 10287 10274 10264 10257
10592 10590 10587 10582 10579 10575 10570 10565 10559 10553 10549 10541 10532 10526 10521 10514 10507 10497 10489 10482 10475 10463 10451 10438 10422 10413 10408 10401 10395 10386 10373 10355 10339 10323 10309 10294 10282 10270 10261 10248 10236 10229 10220
10581 10579 10575 10571 10568 10563 10559 10554 10549 10543 10536 10525 10519 10512 10506 10496 10490 10482 10472 10463 10455 10444 10430 10414 10400 10386 10374 10368 10359 10352 10345 10331 10314 10296 10283 10264 10249 10234 10225 10212 10203 10196 10189
10573 10568 10560 10557 10554 10551 10547 10541 10535 10530 10524 10516 10507 10498 10491 10481 10471 10462 10451 10440 10430 10423 10412 10395 10379 10362 10348 10336 10329 10319 10308 10298 10283 10266 10252 10234 10220 10204 10193 10182 10176 10167 10160
10559 10555 10549 10544 10540 10535 10531 10527 10522 10517 10509 10502 10493 10484 10475 10464 10454 10442 10430 10419 10406 10395 10390 10371 10357 10340 10325 10310 10291 10284 10277 10265 10248 10230 10214 10199 10186 10168 10155 10151 10149 10141 10136
10543 10541 10537 10533 10528 10523 10519 10513 10508 10502 10494 10487 10478 10469 10458 10448 10437 10424 10411 10398 10385 10370 10364 10355 10337 10320 10304 10285 10270 10253 10243 10234 10222 10202 10186 10174 10162 10145 10130 10125 10120 10116 10113
10531 10528 10523 10520 10515 10510 10505 10498 10492 10485 10478 10470 10459 10450 10438 10427 10416 10403 10390 10375 10360 10346 10334 10329 10314 10298 10281 10261 10245 10230 10219 10206 10194 10179 10161 10147 10134 10122 10109 10103 10095 10092 10091
10518 10514 10510 10504 10500 10495 10488 10482 10476 10468 10460 10450 10441 10430 10419 10406 10394 10381 10368 10355 10340 10327 10310 10296 10290 10275 10255 10238 10222 10204 10192 10179 10170 10153 10137 10122 10109 10096 10086 10081 10075 10072 10070
10504 10499 10494 10489 10484 10479 10473 10466 10458 10450 10440 10431 10420 10409 10397 10384 10371 10358 10345 10330 10318 10303 10285 10267 10255 10240 10230 10211 10187 10172 10158 10145 10135 10121 10113 10095 10085 10076 10065 10060 10054 10050 10050
10488 10483 10478 10473 10468 10462 10456 10448 10440 10430 10419 10409 10398 10386 10374 10360 10347 10334 10321 10310 10290 10273 10255 10235 10221 10205 10191 10175 10161 10143 10127 10117 10110 10088 10088 10072 10064 10054 10047 10040 10035 10030 10028
10472 10468 10462 10456 10450 10444 10437 10428 10419 10409 10400 10389 10378 10364 10350 10336 10323 10311 10297 10282 10266 10245 10233 10215 10204 10187 10172 10150 10133 10117 10104 10092 10088 10068 10064 10051 10042 10033 10026 10020 10016 10012 10009
10456 10451 10446 10440 10435 10428 10418 10408 10400 10390 10378 10366 10355 10342 10329 10313 10297 10285 10273 10258 10242 10223 10199 10183 10170 10157 10143 10128 10112 10098 10080 10068 10057 10046 10044 10031 10021 10013 10008 10001 9997 9993 9992
10441 10436 10429 10423 10418 10411 10399 10388 10379 10370 10358 10345 10330 10316 10303 10289 10272 10260 10251 10239 10223 10202 10181 10164 10145 10130 10114 10102 10081 10070 10059 10047 10035 10024 10021 10013 10001 9997 9988 9984 9980 9977 9974
10425 10419 10412 10404 10400 10395 10384 10367 10358 10347 10334 10319 10304 10290 10278 10265 10250 10233 10221 10208 10198 10180 10161 10138 10117 10099 10085 10073 10061 10045 10037 10027 10017 10004 9998 9992 9985 9979 9970 9967 9964 9960 9959
10407 10401 10395 10388 10381 10375 10364 10349 10336 10326 10312 10298 10283 10269 10255 10241 10226 10209 10193 10176 10166 10149 10131 10115 10095 10075 10062 10051 10037 10025 10015 10007 9998 9985 9980 9973 9969 9963 9953 9952 9949 9946 9944